Date String (YYYY-MM-DD hh:mm:ss) UTC,Instrument flags,Ambient pressure (hPa),Sample flow (lpm),Bypass flow (lpm),Sample temperature (°C),Ambient temperature (°C),ASC tube jacket temperature (°C),LED temperature (°C),Box temperature (°C),Sample RH (%),Span deviation,Mass concentration (μg/m³),Mass concentration (μg/m³),Mass concentration (μg/m³)
DateTimeUTC,F1_M11,P_M11,Q1_M11,Q2_M11,T1_M11,T2_M11,T3_M11,T4_M11,T5_M11,U1_M11,ZSPAN_M11,X0_M11,X2_M11,X1_M11
2022-10-28 22:00:00,,0830.6,5.02,0.00,28.9,27.5,00.0,37.7,30.7,09.6,0000.0,0011.24,0006.06,0005.64
2022-10-28 22:01:00,,0830.6,5.00,0.00,28.9,27.5,00.0,37.7,30.7,09.8,0000.0,0010.88,0006.04,0005.64
2022-10-28 22:02:00,,0830.6,4.99,0.00,28.9,27.6,00.0,37.7,30.7,09.8,0000.0,0010.78,0006.00,0005.61
2022-10-28 22:03:00,,0830.6,5.02,0.00,28.9,27.6,00.0,37.7,30.8,09.8,0000.0,0010.97,0005.94,0005.57
2022-10-28 22:04:00,,0830.6,5.00,0.00,28.9,27.5,00.0,37.7,30.7,09.5,0000.0,0011.46,0005.89,0005.53
2022-10-28 22:05:00,,0830.6,4.99,0.00,28.9,27.5,00.0,37.7,30.7,09.5,0000.0,0011.60,0005.86,0005.50
2022-10-28 22:06:00,,0830.6,5.00,0.00,28.9,27.6,00.0,37.7,30.8,09.7,0000.0,0011.38,0005.82,0005.48
2022-10-28 22:07:00,,0830.6,5.00,0.00,29.0,27.7,00.0,37.7,30.8,09.4,0000.0,0010.74,0005.74,0005.41
2022-10-28 22:08:00,,0830.6,5.02,0.00,29.0,27.7,00.0,37.7,30.8,09.2,0000.0,0010.62,0005.69,0005.35
2022-10-28 22:09:00,,0830.6,5.00,0.00,29.0,27.8,00.0,37.7,30.8,09.0,0000.0,0010.18,0005.61,0005.28
2022-10-28 22:10:00,,0830.6,5.00,0.00,29.0,27.8,00.0,37.7,30.9,09.2,0000.0,0010.01,0005.55,0005.22
2022-10-28 22:11:00,,0830.6,5.00,0.00,29.0,27.8,00.0,37.7,30.9,09.3,0000.0,0009.76,0005.48,0005.14
2022-10-28 22:12:00,,0830.6,4.99,0.00,29.0,27.9,00.0,37.7,30.9,09.3,0000.0,0010.14,0005.44,0005.10
2022-10-28 22:13:00,,0830.6,4.99,0.00,29.1,27.9,00.0,37.8,30.9,09.3,0000.0,0010.15,0005.42,0005.06
2022-10-28 22:14:00,,0830.6,4.99,0.00,29.1,27.9,00.0,37.8,30.9,09.4,0000.0,0009.90,0005.39,0005.01
2022-10-28 22:15:00,,0830.6,5.02,0.00,29.1,27.8,00.0,37.8,30.9,09.2,0000.0,0009.58,0005.33,0004.93
2022-10-28 22:16:00,,0830.6,5.00,0.00,29.1,27.8,00.0,37.8,30.9,08.9,0000.0,0009.20,0005.21,0004.82
2022-10-28 22:17:00,,0830.6,4.99,0.00,29.1,27.8,00.0,37.8,30.9,08.8,0000.0,0009.04,0005.13,0004.72
2022-10-28 22:18:00,,0830.6,5.01,0.00,29.1,27.7,00.0,37.8,30.9,08.7,0000.0,0009.00,0005.08,0004.66
2022-10-28 22:19:00,,0830.6,5.00,0.00,29.1,27.7,00.0,37.8,30.9,08.6,0000.0,0008.84,0005.00,0004.61
2022-10-28 22:20:00,,0830.6,4.99,0.00,29.1,27.7,00.0,37.8,30.9,08.6,0000.0,0008.90,0004.99,0004.58
2022-10-28 22:21:00,,0830.6,5.01,0.00,29.1,27.7,00.0,37.8,30.9,08.7,0000.0,0008.99,0004.95,0004.54
2022-10-28 22:22:00,,0830.6,5.00,0.00,29.1,27.7,00.0,37.8,30.9,08.7,0000.0,0008.90,0004.93,0004.51
2022-10-28 22:23:00,,0830.6,4.99,0.00,29.1,27.7,00.0,37.8,30.9,08.5,0000.0,0008.77,0004.87,0004.44
2022-10-28 22:24:00,,0830.6,5.00,0.00,29.1,27.8,00.0,37.8,30.9,08.5,0000.0,0008.66,0004.79,0004.36
2022-10-28 22:25:00,,0830.6,5.00,0.00,29.1,27.8,00.0,37.8,30.9,08.4,0000.0,0008.49,0004.69,0004.29
2022-10-28 22:26:00,,0830.6,4.99,0.00,29.1,27.8,00.0,37.8,30.9,08.4,0000.0,0008.29,0004.62,0004.25
2022-10-28 22:27:00,,0830.6,5.00,0.00,29.1,27.7,00.0,37.8,30.9,08.3,0000.0,0008.48,0004.61,0004.25
2022-10-28 22:28:00,,0830.5,5.01,0.00,29.1,27.7,00.0,37.8,30.9,08.3,0000.0,0008.44,0004.59,0004.24
2022-10-28 22:29:00,,0830.5,4.99,0.00,29.1,27.7,00.0,37.8,30.9,08.3,0000.0,0008.36,0004.56,0004.24
2022-10-28 22:30:00,,0830.5,4.99,0.00,29.1,27.7,00.0,37.9,30.9,08.3,0000.0,0008.44,0004.54,0004.20
2022-10-28 22:31:00,,0830.5,5.01,0.00,29.1,27.8,00.0,37.9,30.9,08.4,0000.0,0008.36,0004.48,0004.15
2022-10-28 22:32:00,,0830.5,4.99,0.00,29.1,27.7,00.0,37.9,30.9,08.2,0000.0,0008.20,0004.41,0004.08
2022-10-28 22:33:00,,0830.6,5.01,0.00,29.1,27.8,00.0,37.9,30.9,08.1,0000.0,0008.49,0004.31,0004.00
2022-10-28 22:34:00,,0830.5,4.99,0.00,29.1,27.9,00.0,37.9,31.0,08.3,0000.0,0008.40,0004.25,0003.94
2022-10-28 22:35:00,,0830.5,4.99,0.00,29.1,27.9,00.0,37.9,31.0,08.1,0000.0,0008.20,0004.17,0003.87
2022-10-28 22:36:00,,0830.6,5.01,0.00,29.2,27.9,00.0,37.9,31.0,08.2,0000.0,0008.11,0004.10,0003.80
2022-10-28 22:37:00,,0830.5,4.99,0.00,29.1,27.9,00.0,37.9,31.0,08.1,0000.0,0007.89,0004.04,0003.75
2022-10-28 22:38:00,,0830.5,4.99,0.00,29.1,27.8,00.0,37.9,30.9,08.0,0000.0,0007.50,0003.97,0003.69
2022-10-28 22:39:00,,0830.5,5.02,0.00,29.1,27.7,00.0,37.9,30.9,08.1,0000.0,0007.48,0003.88,0003.62
2022-10-28 22:40:00,,0830.5,4.99,0.00,29.1,27.8,00.0,37.9,31.0,08.0,0000.0,0007.58,0003.82,0003.54
2022-10-28 22:41:00,,0830.5,4.99,0.00,29.2,27.8,00.0,37.9,31.0,08.0,0000.0,0007.53,0003.76,0003.50
2022-10-28 22:42:00,,0830.5,5.02,0.00,29.2,27.8,00.0,37.9,31.0,08.0,0000.0,0007.81,0003.71,0003.47
2022-10-28 22:43:00,,0830.5,4.99,0.00,29.2,27.9,00.0,37.9,31.0,08.1,0000.0,0007.71,0003.66,0003.45
2022-10-28 22:44:00,,0830.5,4.99,0.00,29.2,27.9,00.0,37.9,31.0,08.0,0000.0,0007.19,0003.65,0003.42
2022-10-28 22:45:00,,0830.5,5.02,0.00,29.2,28.0,00.0,37.9,31.0,08.0,0000.0,0006.84,0003.62,0003.40
2022-10-28 22:46:00,,0830.5,4.99,0.00,29.2,27.9,00.0,38.0,31.0,08.0,0000.0,0006.70,0003.60,0003.38
2022-10-28 22:47:00,,0830.5,4.99,0.00,29.2,27.9,00.0,38.0,31.0,07.9,0000.0,0006.68,0003.59,0003.37
2022-10-28 22:48:00,,0830.5,4.99,0.00,29.2,28.0,00.0,38.0,31.1,07.9,0000.0,0006.65,0003.56,0003.35
2022-10-28 22:49:00,,0830.4,5.02,0.00,29.2,28.0,00.0,38.0,31.1,08.0,0000.0,0006.44,0003.52,0003.32
2022-10-28 22:50:00,,0830.4,4.99,0.00,29.3,28.0,00.0,38.0,31.1,08.0,0000.0,0006.28,0003.53,0003.31
2022-10-28 22:51:00,,0830.4,4.99,0.00,29.3,28.0,00.0,38.0,31.1,08.2,0000.0,0005.98,0003.52,0003.29
2022-10-28 22:52:00,,0830.4,4.99,0.00,29.3,28.1,00.0,38.0,31.1,08.1,0000.0,0005.86,0003.49,0003.28
2022-10-28 22:53:00,,0830.4,5.01,0.00,29.3,28.1,00.0,38.0,31.2,08.1,0000.0,0005.10,0003.48,0003.26
2022-10-28 22:54:00,,0830.4,5.02,0.00,29.3,28.1,00.0,38.0,31.2,08.1,0000.0,0004.85,0003.46,0003.23
2022-10-28 22:55:00,,0830.4,4.99,0.00,29.4,28.2,00.0,38.1,31.2,08.1,0000.0,0004.79,0003.43,0003.22
2022-10-28 22:56:00,,0830.4,4.99,0.00,29.4,28.2,00.0,38.1,31.2,08.1,0000.0,0004.62,0003.41,0003.21
2022-10-28 22:57:00,,0830.4,5.00,0.00,29.4,28.2,00.0,38.1,31.2,08.2,0000.0,0004.77,0003.40,0003.21
2022-10-28 22:58:00,,0830.4,5.01,0.00,29.4,28.2,00.0,38.1,31.2,08.1,0000.0,0004.86,0003.41,0003.20
2022-10-28 22:59:00,,0830.4,4.99,0.00,29.4,28.1,00.0,38.1,31.2,08.1,0000.0,0004.84,0003.41,0003.19
